Year,Month,Day,Hour,Minute,Value (Times are PST for temperature in C)
2011,03,14,11,11,6.90
2011,03,14,11,12,7.00
2011,03,14,11,13,7.00
2011,03,14,11,14,7.10
2011,03,14,11,15,7.10
2011,03,14,11,16,7.20
2011,03,14,11,17,7.30
2011,03,14,11,18,7.30
2011,03,14,11,19,7.30
2011,03,14,11,20,7.30
2011,03,14,11,21,7.30
2011,03,14,11,22,7.40
2011,03,14,11,23,7.40
2011,03,14,11,24,7.50
2011,03,14,11,25,7.50
2011,03,14,11,26,7.50
2011,03,14,11,27,7.60
2011,03,14,11,28,7.60
2011,03,14,11,29,7.60
2011,03,14,11,30,7.70
2011,03,14,11,31,7.70
2011,03,14,11,32,7.80
2011,03,14,11,33,7.80
2011,03,14,11,34,7.80
2011,03,14,11,35,7.90
2011,03,14,11,36,7.90
2011,03,14,11,37,7.90
2011,03,14,11,38,7.80
2011,03,14,11,39,7.90
2011,03,14,11,40,7.90
2011,03,14,11,41,7.90
2011,03,14,11,42,7.90
2011,03,14,11,43,7.90
2011,03,14,11,44,7.80
2011,03,14,11,45,7.80
2011,03,14,11,46,7.80
2011,03,14,11,47,7.80
2011,03,14,11,48,7.90
2011,03,14,11,49,7.80
2011,03,14,11,50,7.80
2011,03,14,11,51,7.80
2011,03,14,11,52,7.80
2011,03,14,11,53,7.80
2011,03,14,11,54,7.80
2011,03,14,11,55,7.80
2011,03,14,11,56,7.80
2011,03,14,11,57,7.80
2011,03,14,11,58,7.80
2011,03,14,11,59,7.80
2011,03,14,12,00,7.80
2011,03,14,12,01,7.90
2011,03,14,12,02,8.00
2011,03,14,12,03,8.00
2011,03,14,12,04,8.00
2011,03,14,12,05,8.10
2011,03,14,12,06,8.10
2011,03,14,12,07,8.10
2011,03,14,12,08,8.10
2011,03,14,12,09,8.10
2011,03,14,12,10,8.20
2011,03,14,12,11,8.20
2011,03,14,12,12,8.20
2011,03,14,12,13,8.30
2011,03,14,12,14,8.30
2011,03,14,12,15,8.30
2011,03,14,12,16,8.30
2011,03,14,12,17,8.30
2011,03,14,12,18,8.40
2011,03,14,12,19,8.50
2011,03,14,12,20,8.50
2011,03,14,12,21,8.50
2011,03,14,12,22,8.60
2011,03,14,12,23,8.60
2011,03,14,12,24,8.60
2011,03,14,12,25,8.60
2011,03,14,12,26,8.60
2011,03,14,12,27,8.60
2011,03,14,12,28,8.60
2011,03,14,12,29,8.60
2011,03,14,12,30,8.60
2011,03,14,12,31,8.60
2011,03,14,12,32,8.70
2011,03,14,12,33,8.70
2011,03,14,12,34,8.70
2011,03,14,12,35,8.70
2011,03,14,12,36,8.70
2011,03,14,12,37,8.70
2011,03,14,12,38,8.70
2011,03,14,12,39,8.60
2011,03,14,12,40,8.60
2011,03,14,12,41,8.60
2011,03,14,12,42,8.60
2011,03,14,12,43,8.60
2011,03,14,12,44,8.50
2011,03,14,12,45,8.50
2011,03,14,12,46,8.50
2011,03,14,12,47,8.50
2011,03,14,12,48,8.50
2011,03,14,12,49,8.50
2011,03,14,12,50,8.40
2011,03,14,12,51,8.40
2011,03,14,12,52,8.40
2011,03,14,12,53,8.40
2011,03,14,12,54,8.50
2011,03,14,12,55,8.50
2011,03,14,12,56,8.50
2011,03,14,12,57,8.50
2011,03,14,12,58,8.50
2011,03,14,12,59,8.40
2011,03,14,13,00,8.40
2011,03,14,13,01,8.40
2011,03,14,13,02,8.40
2011,03,14,13,03,8.30
2011,03,14,13,04,8.30
2011,03,14,13,05,8.30
2011,03,14,13,06,8.30
2011,03,14,13,07,8.30
2011,03,14,13,08,8.30
2011,03,14,13,09,8.30
2011,03,14,13,10,8.40
2011,03,14,13,11,8.40
2011,03,14,13,12,8.50
2011,03,14,13,13,8.50
2011,03,14,13,14,8.50
2011,03,14,13,15,8.50
2011,03,14,13,16,8.50
2011,03,14,13,17,8.60
2011,03,14,13,18,8.60
2011,03,14,13,19,8.60
2011,03,14,13,20,8.70
2011,03,14,13,21,8.70
2011,03,14,13,22,8.80
2011,03,14,13,23,8.90
2011,03,14,13,24,8.80
2011,03,14,13,25,8.80
2011,03,14,13,26,8.80
2011,03,14,13,27,8.80
2011,03,14,13,28,8.90
2011,03,14,13,29,8.90
2011,03,14,13,30,8.90
2011,03,14,13,31,8.90
2011,03,14,13,32,9.00
2011,03,14,13,33,9.00
2011,03,14,13,34,9.00
2011,03,14,13,35,9.00
2011,03,14,13,36,9.00
2011,03,14,13,37,9.00
2011,03,14,13,38,9.00
2011,03,14,13,39,9.10
2011,03,14,13,40,9.20
2011,03,14,13,41,9.20
2011,03,14,13,42,9.20
2011,03,14,13,43,9.20
2011,03,14,13,44,9.20
2011,03,14,13,45,9.20
2011,03,14,13,46,9.20
2011,03,14,13,47,9.20
2011,03,14,13,48,9.20
2011,03,14,13,49,9.30
2011,03,14,13,50,9.30
2011,03,14,13,51,9.30
2011,03,14,13,52,9.30
2011,03,14,13,53,9.40
2011,03,14,13,54,9.40
2011,03,14,13,55,9.40
2011,03,14,13,56,9.40
2011,03,14,13,57,9.40
2011,03,14,13,58,9.40
2011,03,14,13,59,9.40
2011,03,14,14,00,9.40
2011,03,14,14,01,9.40
2011,03,14,14,02,9.40
2011,03,14,14,03,9.40
2011,03,14,14,04,9.40
2011,03,14,14,05,9.40
2011,03,14,14,06,9.40
2011,03,14,14,07,9.50
2011,03,14,14,08,9.50
2011,03,14,14,09,9.60
2011,03,14,14,10,9.60
2011,03,14,14,11,9.50
2011,03,14,14,12,9.50
2011,03,14,14,13,9.50
2011,03,14,14,14,9.50
2011,03,14,14,15,9.60
2011,03,14,14,16,9.70
2011,03,14,14,17,9.70
2011,03,14,14,18,9.80
2011,03,14,14,19,9.80
2011,03,14,14,20,9.80
2011,03,14,14,21,9.80
2011,03,14,14,22,9.80
2011,03,14,14,23,9.80
2011,03,14,14,24,9.80
2011,03,14,14,25,9.70
2011,03,14,14,26,9.60
2011,03,14,14,27,9.60
2011,03,14,14,28,9.60
2011,03,14,14,29,9.50
2011,03,14,14,30,9.50
2011,03,14,14,31,9.40
2011,03,14,14,32,9.30
2011,03,14,14,33,9.30
2011,03,14,14,34,9.30
2011,03,14,14,35,9.30
2011,03,14,14,36,9.30
2011,03,14,14,37,9.30
2011,03,14,14,38,9.30
2011,03,14,14,39,9.20
2011,03,14,14,40,9.20
2011,03,14,14,41,9.10
2011,03,14,14,42,9.10
2011,03,14,14,43,9.10
2011,03,14,14,44,9.10
2011,03,14,14,45,9.10
2011,03,14,14,46,9.10
2011,03,14,14,47,9.20
2011,03,14,14,48,9.20
2011,03,14,14,49,9.20
2011,03,14,14,50,9.20
2011,03,14,14,51,9.20
2011,03,14,14,52,9.20
2011,03,14,14,53,9.20
2011,03,14,14,54,9.20
2011,03,14,14,55,9.20
2011,03,14,14,56,9.20
2011,03,14,14,57,9.20
2011,03,14,14,58,9.20
2011,03,14,14,59,9.20
2011,03,14,15,00,9.20
2011,03,14,15,01,9.20
2011,03,14,15,02,9.20
2011,03,14,15,03,9.20
2011,03,14,15,04,9.20
2011,03,14,15,05,9.20
2011,03,14,15,06,9.20
2011,03,14,15,07,9.20
2011,03,14,15,08,9.20
2011,03,14,15,09,9.10
2011,03,14,15,10,9.10
2011,03,14,15,11,9.10
2011,03,14,15,12,9.10
2011,03,14,15,13,9.10
2011,03,14,15,14,9.00
2011,03,14,15,15,9.00
2011,03,14,15,16,8.90
2011,03,14,15,17,8.90
2011,03,14,15,18,8.90
2011,03,14,15,19,8.90
2011,03,14,15,20,8.90
2011,03,14,15,21,8.90
2011,03,14,15,22,8.90
2011,03,14,15,23,8.90
2011,03,14,15,24,9.00
2011,03,14,15,25,9.10
2011,03,14,15,26,9.10
2011,03,14,15,27,9.20
2011,03,14,15,28,9.10
2011,03,14,15,29,9.10
2011,03,14,15,30,9.10
2011,03,14,15,31,9.10
2011,03,14,15,32,9.20
2011,03,14,15,33,9.20
2011,03,14,15,34,9.20
2011,03,14,15,35,9.20
2011,03,14,15,36,9.20
2011,03,14,15,37,9.20
2011,03,14,15,38,9.20
2011,03,14,15,39,9.30
2011,03,14,15,40,9.30
2011,03,14,15,41,9.40
2011,03,14,15,42,9.50
2011,03,14,15,43,9.50
2011,03,14,15,44,9.60
2011,03,14,15,45,9.60
2011,03,14,15,46,9.70
2011,03,14,15,47,9.60
2011,03,14,15,48,9.60
2011,03,14,15,49,9.60
2011,03,14,15,50,9.50
2011,03,14,15,51,9.50
2011,03,14,15,52,9.50
2011,03,14,15,53,9.40
2011,03,14,15,54,9.40
2011,03,14,15,55,9.40
2011,03,14,15,56,9.30
2011,03,14,15,57,9.30
2011,03,14,15,58,9.30
2011,03,14,15,59,9.30
2011,03,14,16,00,9.30
2011,03,14,16,01,9.30
2011,03,14,16,02,9.20
2011,03,14,16,03,9.20
2011,03,14,16,04,9.20
2011,03,14,16,05,9.20
2011,03,14,16,06,9.20
2011,03,14,16,07,9.20
2011,03,14,16,08,9.20
2011,03,14,16,09,9.20
2011,03,14,16,10,9.20
2011,03,14,16,11,9.20
2011,03,14,16,12,9.20
2011,03,14,16,13,9.30
2011,03,14,16,14,9.30
2011,03,14,16,15,9.40
2011,03,14,16,16,9.40
2011,03,14,16,17,9.40
2011,03,14,16,18,9.50
2011,03,14,16,19,9.50
2011,03,14,16,20,9.60
2011,03,14,16,21,9.60
2011,03,14,16,22,9.70
2011,03,14,16,23,9.70
2011,03,14,16,24,9.70
2011,03,14,16,25,9.70
2011,03,14,16,26,9.70
2011,03,14,16,27,9.70
2011,03,14,16,28,9.70
2011,03,14,16,29,9.70
2011,03,14,16,30,9.70
2011,03,14,16,31,9.70
2011,03,14,16,32,9.70
2011,03,14,16,33,9.70
2011,03,14,16,34,9.80
2011,03,14,16,35,9.80
2011,03,14,16,36,9.80
2011,03,14,16,37,9.80
2011,03,14,16,38,9.80
2011,03,14,16,39,9.70
2011,03,14,16,40,9.70
2011,03,14,16,41,9.70
2011,03,14,16,42,9.70
2011,03,14,16,43,9.70
2011,03,14,16,44,9.70
2011,03,14,16,45,9.60
2011,03,14,16,46,9.60
2011,03,14,16,47,9.60
2011,03,14,16,48,9.60
2011,03,14,16,49,9.60
2011,03,14,16,50,9.60
2011,03,14,16,51,9.60
2011,03,14,16,52,9.50
2011,03,14,16,53,9.50
2011,03,14,16,54,9.40
2011,03,14,16,55,9.30
2011,03,14,16,56,9.30
2011,03,14,16,57,9.30
2011,03,14,16,58,9.20
2011,03,14,16,59,9.20
2011,03,14,17,00,9.20
2011,03,14,17,01,9.20
2011,03,14,17,02,9.10
2011,03,14,17,03,9.10
2011,03,14,17,04,9.00
2011,03,14,17,05,9.00
2011,03,14,17,06,9.00
2011,03,14,17,07,9.00
2011,03,14,17,08,9.00
2011,03,14,17,09,8.90
2011,03,14,17,10,8.90
2011,03,14,17,11,8.90
2011,03,14,17,12,8.90
2011,03,14,17,13,8.90
2011,03,14,17,14,8.90
2011,03,14,17,15,9.00
2011,03,14,17,16,9.00
2011,03,14,17,17,9.00
2011,03,14,17,18,9.00
2011,03,14,17,19,9.00
2011,03,14,17,20,9.00
2011,03,14,17,21,9.10
2011,03,14,17,22,9.10
2011,03,14,17,23,9.10
2011,03,14,17,24,9.20
2011,03,14,17,25,9.20
2011,03,14,17,26,9.20
2011,03,14,17,27,9.20
2011,03,14,17,28,9.20
2011,03,14,17,29,9.20
2011,03,14,17,30,9.20
2011,03,14,17,31,9.20
2011,03,14,17,32,9.30
2011,03,14,17,33,9.30
2011,03,14,17,34,9.30
2011,03,14,17,35,9.30
2011,03,14,17,36,9.30
2011,03,14,17,37,9.30
2011,03,14,17,38,9.30
2011,03,14,17,39,9.30
2011,03,14,17,40,9.30
2011,03,14,17,41,9.30
2011,03,14,17,42,9.30
2011,03,14,17,43,9.30
2011,03,14,17,44,9.30
2011,03,14,17,45,9.30
2011,03,14,17,46,9.30
2011,03,14,17,47,9.30
2011,03,14,17,48,9.30
2011,03,14,17,49,9.30
2011,03,14,17,50,9.30
2011,03,14,17,51,9.30
2011,03,14,17,52,9.30
2011,03,14,17,53,9.30
2011,03,14,17,54,9.30
2011,03,14,17,55,9.30
2011,03,14,17,56,9.30
2011,03,14,17,57,9.30
2011,03,14,17,58,9.30
2011,03,14,17,59,9.30
2011,03,14,18,00,9.30
